This is the latest recevied weather packets stored in our database for station/object F1ZVN-13. If no packets are shown the sender has not sent any weather packets the latest 10 day(s).
| Time | Temp. | Humidity | Pressure | Rain* | Wind** | Luminosity | Snow |
|---|---|---|---|---|---|---|---|
| 1778217755 | 1.67° C | 70% | 1003.3 hPa | 0 mm | 0 m/s | - | - |
| 1778217636 | 1.67° C | 68% | 1003.3 hPa | 0 mm | 0 m/s | - | - |
| 1778217515 | 1.67° C | 69% | 1003.2 hPa | 0 mm | 0 m/s | - | - |
| 1778217393 | 1.67° C | 70% | 1003.2 hPa | 0 mm | 0 m/s | - | - |
| 1778217273 | 1.67° C | 70% | 1003.2 hPa | 0 mm | 0 m/s | - | - |
| 1778217151 | 1.67° C | 70% | 1003.3 hPa | 0 mm | 0 m/s | - | - |
| 1778217028 | 1.67° C | 70% | 1003.2 hPa | 0 mm | 0 m/s | - | - |
| 1778216908 | 1.67° C | 72% | 1003.2 hPa | 0 mm | 0 m/s | - | - |
| 1778216785 | 1.67° C | 70% | 1003.2 hPa | 0 mm | 0 m/s | - | - |
| 1778216666 | 1.67° C | 72% | 1003.2 hPa | 0 mm | 0 m/s | - | - |
| 1778216543 | 1.67° C | 71% | 1003.3 hPa | 0 mm | 0 m/s | - | - |
| 1778216423 | 1.67° C | 71% | 1003.2 hPa | 0 mm | 0 m/s | - | - |
| 1778216301 | 1.67° C | 70% | 1003.2 hPa | 0 mm | 0 m/s | - | - |
| 1778216186 | 1.67° C | 71% | 1003.2 hPa | 0 mm | 0 m/s | - | - |
| 1778216059 | 1.67° C | 71% | 1003.1 hPa | 0 mm | 0 m/s | - | - |
| 1778215855 | 1.67° C | 70% | 1003.1 hPa | 0 mm | 0 m/s | - | - |
| 1778215816 | 1.67° C | 70% | 1003.1 hPa | 0 mm | 0 m/s | - | - |
| 1778215696 | 1.67° C | 70% | 1003.1 hPa | 0 mm | 0 m/s | - | - |
| 1778215453 | 1.67° C | 71% | 1002.9 hPa | 0 mm | 0 m/s | - | - |
| 1778215214 | 1.67° C | 69% | 1003.1 hPa | 0 mm | 0 m/s | - | - |
| 1778214969 | 1.67° C | 72% | 1003.1 hPa | 0 mm | 0 m/s | - | - |
| 1778214850 | 1.67° C | 72% | 1002.9 hPa | 0 mm | 0 m/s | - | - |
| 1778214726 | 1.67° C | 73% | 1003.1 hPa | 0 mm | 0 m/s | - | - |
| 1778214605 | 1.67° C | 73% | 1003.1 hPa | 0 mm | 0 m/s | - | - |
| 1778214483 | 1.11° C | 75% | 1003.1 hPa | 0 mm | 0 m/s | - | - |
* Rain latest hour (hover to see other rain measurements)
** Current wind speed in m/s (hover to see current wind gust speed)